Torna al catalogo

CZ-3A DEB

LostHEO
NORAD 39598·DEBRIS·🇨🇳 China

Lanciato Feb 2, 2007 da Xichang Satellite Launch Center

Loading…

Prossimi Passaggi (prossime 24 ore)

TLE

ObsoletoSource: Space-Track

Epoca: Sep 13, 2025, 06:19 UTC

1 39598U 07003AK  25256.26323645  .00000076  00000-0  67066-2 0  9995
2 39598  26.1244  85.8030 7455166 188.1448 357.7963  1.82486958    19

Traccia CZ-3A DEB in tempo reale con AllMySat

Download on the App Store